Overview Statistics Trail Chart Weather Telemetry Raw packets
 

This is the latest recevied weather packets stored in our database for station/object E24QND-2. If no packets are shown the sender has not sent any weather packets the latest 10 day(s).

<< 10 11 12 13 14 15 16 >>
Time Temp. Humidity Pressure Rain* Wind** Luminosity Snow
1788354192 26.67° C 99% - - - 0 W/m² -
1788352967 26.67° C 1% - - - 0 W/m² -
1788351742 27.78° C 99% - - - 0 W/m² -
1788350518 28.33° C 1% - - - 0 W/m² -
1788349293 28.33° C 1% - - - 0 W/m² -
1788348069 29.44° C 99% - - - 0 W/m² -
1788346844 30° C 1% - - - 0 W/m² -
1788345620 30.56° C 99% - - - 0 W/m² -
1788344396 30.56° C 26% - - - 0 W/m² -
1788343171 31.11° C 91% - - - 0 W/m² -
1788341946 31.11° C 99% - - - 0 W/m² -
1788340722 32.22° C 99% - - - 0 W/m² -
1788339497 31.67° C 99% - - - 0 W/m² -
1788338272 32.78° C 99% - - - 0 W/m² -
1788337048 32.78° C 1% - - - 0 W/m² -
1788335823 33.89° C 1% - - - 0 W/m² -
1788334599 35° C 1% - - - 0 W/m² -
1788333374 35° C 17% - - - 0 W/m² -
1788332150 33.33° C 1% - - - 0 W/m² -
1788330925 33.89° C 1% - - - 0 W/m² -
1788329700 33.33° C 1% - - - 0 W/m² -
1788328476 33.33° C 1% - - - 0 W/m² -
1788327251 32.22° C 1% - - - 0 W/m² -
1788326027 31.67° C 1% - - - 0 W/m² -
1788324802 32.22° C 1% - - - 0 W/m² -

* Rain since midnight (hover to see other rain measurements)
** Current wind speed in m/s (hover to see current wind gust speed)